This demonstration page uses our WeatherBlox Daily Observations layout. Learn more.

Left ArrowRight Arrow

38.83388, -104.82136

Hourly Observations for January 29, 2017

Temp ( °F °C ) Dew Point ( °F °C ) Humidity (%) Winds ( mph kmh ) Pressure ( in mb ) Visibility ( mi km ) Precip ( " mm )
12:58 am 00:58 Clear 37 2.6 10 -12.1 33 33 NNW 12 19 30.00 1016 10 16 0.00 0.00
1:58 am 01:58 Clear 35 1.8 12 -11.1 38 38 WNW 7 11 30.02 1017 10 16 0.00 0.00
2:58 am 02:58 Clear 34 0.9 12 -11.1 41 41 WNW 7 11 30.04 1017 10 16 0.00 0.00
3:58 am 03:58 Clear 34 0.9 12 -11 41 41 WNW 8 13 30.04 1017 10 16 0.00 0.00
4:58 am 04:58 Mostly Clear 38 3.3 10 -12.5 31 31 NW 9 15 30.01 1016 10 16 0.00 0.00
5:58 am 05:58 Mostly Clear 40 4.7 12 -11.2 31 31 NNW 16 26 30.00 1016 10 16 0.00 0.00
6:58 am 06:58 Mostly Cloudy 41 4.8 12 -11.1 31 31 NW 14 22 30.03 1017 10 16 0.00 0.00
7:58 am 07:58 Mostly Sunny 43 5.9 12 -11.2 28 28 N 5 7 30.05 1018 10 16 0.00 0.00
8:58 am 08:58 Mostly Sunny 45 7.2 13 -10.7 27 27 SE 5 7 30.05 1018 10 16 0.00 0.00
9:58 am 09:58 Sunny 47 8.3 14 -9.9 27 27 ENE 5 7 30.03 1017 10 16 0.00 0.00
10:58 am 10:58 Sunny 49 9.2 14 -10.1 25 25 ENE 3 6 30.05 1018 10 16 0.00 0.00
11:58 am 11:58 Sunny 50 10 9 -12.6 19 19 NNW 9 15 30.02 1017 10 16 0.00 0.00
12:39 pm 12:39 Sunny 52 11 9 -13 17 17 N 13 20 30.06 1018 10 16 0.00 0.00
12:58 pm 12:58 Sunny 52 11 6 -14.7 15 15 N 18 30 29.96 1015 10 16 0.00 0.00
1:28 pm 13:28 Sunny 52 11 7 -14 16 16 NE 13 20 30.03 1017 10 16 0.00 0.00
1:58 pm 13:58 Partly Cloudy 52 11.2 7 -14 16 16 NNE 9 15 29.97 1015 10 16 0.00 0.00
2:58 pm 14:58 Mostly Cloudy 52 10.9 9 -12.9 18 18 NNE 7 11 29.96 1015 10 16 0.00 0.00
3:58 pm 15:58 Sunny 48 9 9 -12.9 20 20 W 6 9 30.00 1016 10 16 0.00 0.00
4:58 pm 16:58 Sunny 44 6.9 12 -11 27 27 W 5 7 29.98 1015 10 16 0.00 0.00
5:58 pm 17:58 Clear 45 7.4 9 -12.8 22 22 SW 7 11 29.97 1015 10 16 0.00 0.00
6:58 pm 18:58 Clear 45 7.1 9 -12.9 23 23 SSW 5 7 29.96 1015 10 16 0.00 0.00
7:58 pm 19:58 Clear 42 5.5 10 -12.1 27 27 NW 8 13 29.95 1014 10 16 0.00 0.00
8:58 pm 20:58 Clear 40 4.4 10 -12.2 29 29 Calm 29.95 1014 10 16 0.00 0.00
9:58 pm 21:58 Clear 39 3.7 10 -12.1 31 31 WNW 5 7 29.94 1014 10 16 0.00 0.00
10:58 pm 22:58 Clear 38 3.6 11 -11.7 32 32 WNW 7 11 29.89 1012 10 16 0.00 0.00
11:58 pm 23:58 Clear 38 3.4 11 -11.6 33 33 WNW 7 11 29.88 1012 10 16 0.00 0.00

Powered by AerisWeather